Fryeburg, ME

12:16 PM EST on February 20, 2017 (GMT -0500)
Eastern Slopes Regional

Weather History for KIZG - July, 2013

Change the Weather History Date:

Wednesday, July 24, 2013

  Actual Average Record
Temperature  
Mean Temperature 66 °F -  
Max Temperature 81 °F 78 °F 95 °F (2001)
Min Temperature 50 °F 53 °F 44 °F (2002)
Cooling Degree Days 2    
Growing Degree Days 16 (Base 50)    
Moisture  
Dew Point 61 °F    
Average Humidity 82    
Maximum Humidity 100    
Minimum Humidity 48    
Precipitation  
Precipitation 0.01 in - - ()
Sea Level Pressure  
Sea Level Pressure 29.69 in    
Wind  
Wind Speed 2 mph (NW)    
Max Wind Speed 13 mph    
Max Gust Speed 21 mph    
Visibility 8 miles    
Events      
Averages and records for this station are not official NWS values.
T = Trace of Precipitation, MM = Missing Value Source: NWS Daily Summary

Daily Weather History Graph

Daily Weather History Graph

Search for Another Location

Airport or City:

Trip Planner

Search our weather history database for the weather conditions in past years. The results will help you decide how hot, cold, wet, or windy it might be!

Date:

Astronomy

Jul. 24, 2013 Rise Set
Actual Time 5:23 AM EDT 8:16 PM EDT
Civil Twilight 4:49 AM EDT 8:50 PM EDT
Nautical Twilight 4:06 AM EDT 9:32 PM EDT
Astronomical Twilight 3:16 AM EDT 10:23 PM EDT
Moon 9:12 PM EDT (7/24) 7:46 AM EDT (7/24)
Length of Visible Light 16h 00m
Length of Day
14h 52m
Waning Gibbous, 95% of the Moon is Illuminated
Jul 24
Waning Gibbous
Jul 29
Last Quarter
Aug 6
New
Aug 14
First Quarter
Aug 20
Full

Hourly Weather History & Observations

Time (EDT) Temp. Heat Index Dew Point Humidity Pressure Visibility Wind Dir Wind Speed Gust Speed Precip Events Conditions
12:54 AM 64.0 °F - 63.0 °F 96% 29.59 in 10.0 mi Calm Calm - N/A   Overcast
1:54 AM 64.9 °F - 64.0 °F 97% 29.59 in 10.0 mi Calm Calm - N/A   Overcast
2:54 AM 64.9 °F - 64.0 °F 97% 29.59 in 10.0 mi Calm Calm - N/A   Scattered Clouds
3:54 AM 62.1 °F - 61.0 °F 96% 29.60 in 8.0 mi Calm Calm - N/A   Mostly Cloudy
4:06 AM 62.6 °F - 60.8 °F 94% 29.59 in 2.0 mi Calm Calm - N/A   Mostly Cloudy
4:24 AM 62.6 °F - 62.6 °F 100% 29.60 in 6.0 mi Calm Calm - N/A   Overcast
4:32 AM 62.6 °F - 62.6 °F 100% 29.60 in 5.0 mi Calm Calm - N/A   Overcast
4:49 AM 64.4 °F - 64.4 °F 100% 29.60 in 2.5 mi Calm Calm - N/A   Overcast
4:54 AM 63.0 °F - 63.0 °F 100% 29.60 in 4.0 mi Calm Calm - N/A   Overcast
5:10 AM 64.4 °F - 62.6 °F 94% 29.59 in 1.8 mi Calm Calm - N/A   Overcast
5:15 AM 64.4 °F - 62.6 °F 94% 29.59 in 3.0 mi Calm Calm - N/A   Overcast
5:52 AM 62.6 °F - 62.6 °F 100% 29.61 in 1.8 mi NW 3.5 mph - N/A   Overcast
5:54 AM 63.0 °F - 63.0 °F 100% 29.61 in 1.2 mi WNW 3.5 mph - N/A   Overcast
6:16 AM 64.4 °F - 64.4 °F 100% 29.61 in 2.0 mi Calm Calm - N/A   Overcast
6:29 AM 64.4 °F - 64.4 °F 100% 29.61 in 3.0 mi Calm Calm - N/A   Overcast
6:54 AM 64.9 °F - 64.9 °F 100% 29.60 in 4.0 mi Calm Calm - N/A   Overcast
7:54 AM 69.1 °F - 66.0 °F 90% 29.61 in 10.0 mi Calm Calm - N/A   Mostly Cloudy
8:08 AM 69.8 °F - 66.2 °F 88% 29.62 in 10.0 mi Calm Calm - N/A   Mostly Cloudy
8:19 AM 71.6 °F - 66.2 °F 83% 29.62 in 10.0 mi Variable 3.5 mph - N/A   Scattered Clouds
8:54 AM 71.1 °F - 66.9 °F 87% 29.63 in 10.0 mi Calm Calm - N/A   Partly Cloudy
9:06 AM 71.6 °F - 66.2 °F 83% 29.63 in 10.0 mi Calm Calm - N/A   Scattered Clouds
9:54 AM 77.0 °F - 66.9 °F 71% 29.65 in 10.0 mi Variable 3.5 mph - N/A   Scattered Clouds
10:54 AM 80.1 °F 82.3 °F 66.9 °F 64% 29.64 in 10.0 mi Calm Calm - N/A   Partly Cloudy
11:54 AM 78.1 °F - 68.0 °F 71% 29.67 in 10.0 mi WNW 4.6 mph - 0.00 in   Overcast
12:54 PM 78.1 °F - 64.9 °F 64% 29.70 in 10.0 mi WNW 6.9 mph - 0.01 in   Scattered Clouds
1:54 PM 77.0 °F - 61.0 °F 58% 29.72 in 10.0 mi WNW 9.2 mph 18.4 mph N/A   Partly Cloudy
2:54 PM 78.1 °F - 57.9 °F 50% 29.73 in 10.0 mi WNW 9.2 mph - N/A   Partly Cloudy
3:54 PM 75.9 °F - 55.0 °F 48% 29.75 in 10.0 mi WNW 10.4 mph 19.6 mph N/A   Clear
4:54 PM 73.9 °F - 54.0 °F 50% 29.78 in 10.0 mi WNW 12.7 mph 20.7 mph N/A   Clear
5:54 PM 73.0 °F - 53.1 °F 49% 29.81 in 10.0 mi WNW 9.2 mph 17.3 mph N/A   Clear
6:54 PM 70.0 °F - 53.1 °F 55% 29.85 in 10.0 mi WNW 8.1 mph - N/A   Clear
7:54 PM 64.0 °F - 51.1 °F 63% 29.89 in 10.0 mi NNW 6.9 mph - N/A   Clear
8:54 PM 59.0 °F - 51.1 °F 75% 29.93 in 10.0 mi Calm Calm - N/A   Clear
9:54 PM 57.0 °F - 48.9 °F 74% 29.96 in 10.0 mi North 6.9 mph - N/A   Clear
10:54 PM 53.1 °F - 48.0 °F 83% 29.98 in 10.0 mi Calm Calm - N/A   Clear
11:54 PM 50.0 °F - 48.0 °F 93% 30.01 in 10.0 mi Calm Calm - N/A   Clear